Weather History for Lexington, KY

Change the Weather History Date:

Wednesday, September 25, 2013

  Actual Average Record
Temperature  
Mean Temperature 71 °F 64 °F  
Max Temperature 79 °F 75 °F 93 °F (2007)
Min Temperature 63 °F 54 °F 35 °F (1965)
Degree Days  
Heating Degree Days 0 3  
Month to date heating degree days 17 30  
Since 1 July heating degree days 20 32  
Cooling Degree Days 6 3  
Month to date cooling degree days 152 133  
Year to date cooling degree days 1190 1150  
Growing Degree Days 22 (Base 50)    
Moisture  
Dew Point 60 °F    
Average Humidity 70    
Maximum Humidity 87    
Minimum Humidity 52    
Precipitation  
Precipitation 0.00 in 0.10 in 2.96 in (1970)
Month to date precipitation 1.63 2.41  
Year to date precipitation 45.27 34.08  
Snow  
Snow 0.00 in 0.00 in - ()
Month to date snowfall 0.0 0.0  
Since 1 July snowfall 0.0 0.0  
Since 1 September snowfall 0.0 0.0  
Snow Depth 0.00 in    
Sea Level Pressure  
Sea Level Pressure 29.87 in    
Wind  
Wind Speed 6 mph (NE)    
Max Wind Speed 15 mph    
Max Gust Speed 19 mph    
Visibility 10 miles    
Events      
T = Trace of Precipitation, MM = Missing Value Source: NWS Daily Summary

Daily Weather History Graph

Daily Weather History Graph

Search for Another Location

Airport:

Trip Planner

Search our weather history database for the weather conditions in past years. The results will help you decide how hot, cold, wet, or windy it might be!

Date:

Astronomy

Sep. 25, 2013 Rise Set
Actual Time 7:29 AM EDT 7:30 PM EDT
Civil Twilight 7:02 AM EDT 7:56 PM EDT
Nautical Twilight 6:32 AM EDT 8:27 PM EDT
Astronomical Twilight 6:01 AM EDT 8:58 PM EDT
Moon 11:41 PM EDT (9/25) 1:29 PM EDT (9/25)
Length of Visible Light 12h 53m
Length of Day
12h 01m
Waning Gibbous, 64% of the Moon is Illuminated
Sep 25
Waning Gibbous
Sep 26
Last Quarter
Oct 4
New
Oct 11
First Quarter
Oct 18
Full

Hourly Weather History & Observations

Time (EDT) Temp. Dew Point Humidity Pressure Visibility Wind Dir Wind Speed Gust Speed Precip Events Conditions
12:54 AM 66.0 °F 60.1 °F 81% 29.89 in 10.0 mi East 8.1 mph - N/A   Partly Cloudy
1:54 AM 64.9 °F 59.0 °F 81% 29.88 in 10.0 mi East 8.1 mph - N/A   Clear
2:54 AM 64.9 °F 59.0 °F 81% 29.86 in 10.0 mi East 4.6 mph - N/A   Partly Cloudy
3:54 AM 64.9 °F 59.0 °F 81% 29.87 in 10.0 mi Calm Calm - N/A   Overcast
4:54 AM 64.9 °F 59.0 °F 81% 29.86 in 10.0 mi East 4.6 mph - N/A   Overcast
5:54 AM 64.0 °F 59.0 °F 84% 29.85 in 10.0 mi ENE 5.8 mph - N/A   Clear
6:54 AM 64.0 °F 59.0 °F 84% 29.86 in 10.0 mi East 4.6 mph - N/A   Overcast
7:54 AM 64.0 °F 59.0 °F 84% 29.87 in 10.0 mi WNW 3.5 mph - N/A   Overcast
8:54 AM 64.0 °F 60.1 °F 87% 29.88 in 10.0 mi South 3.5 mph - N/A   Overcast
9:54 AM 68.0 °F 61.0 °F 78% 29.88 in 10.0 mi North 3.5 mph - N/A   Overcast
10:54 AM 70.0 °F 61.0 °F 73% 29.88 in 10.0 mi NE 4.6 mph - N/A   Overcast
11:54 AM 72.0 °F 62.1 °F 71% 29.89 in 10.0 mi Calm Calm - N/A   Overcast
12:54 PM 75.9 °F 63.0 °F 64% 29.88 in 10.0 mi ENE 9.2 mph - N/A   Partly Cloudy
1:54 PM 77.0 °F 62.1 °F 60% 29.87 in 10.0 mi ENE 10.4 mph 18.4 mph N/A   Clear
2:54 PM 75.9 °F 61.0 °F 60% 29.85 in 10.0 mi NE 13.8 mph - N/A   Overcast
3:54 PM 77.0 °F 61.0 °F 58% 29.84 in 10.0 mi ENE 10.4 mph 18.4 mph N/A   Partly Cloudy
4:54 PM 78.1 °F 59.0 °F 52% 29.85 in 10.0 mi NE 10.4 mph - N/A   Mostly Cloudy
5:54 PM 75.0 °F 59.0 °F 57% 29.86 in 10.0 mi NNE 5.8 mph - N/A   Overcast
6:54 PM 73.9 °F 60.1 °F 62% 29.86 in 10.0 mi NNE 6.9 mph - N/A   Scattered Clouds
7:54 PM 69.1 °F 59.0 °F 70% 29.87 in 10.0 mi NE 5.8 mph - N/A   Clear
8:54 PM 66.9 °F 59.0 °F 76% 29.88 in 10.0 mi NE 6.9 mph - N/A   Partly Cloudy
9:54 PM 68.0 °F 59.0 °F 73% 29.89 in 10.0 mi NNE 3.5 mph - N/A   Overcast
10:54 PM 66.9 °F 57.0 °F 70% 29.90 in 10.0 mi NE 8.1 mph - N/A   Overcast
11:54 PM 64.0 °F 55.0 °F 73% 29.91 in 10.0 mi NE 8.1 mph - N/A   Scattered Clouds